Weather History for Augusta Bush, GA

Change the Weather History Date:

Wednesday, August 28, 2013

  Actual Average Record
Temperature  
Mean Temperature 77 °F 79 °F  
Max Temperature 90 °F 91 °F 99 °F (1954)
Min Temperature 63 °F 68 °F 56 °F (2014)
Degree Days  
Heating Degree Days 0 0  
Month to date heating degree days 0 0  
Since 1 June heating degree days 0 0  
Since 1 July heating degree days 0 0  
Cooling Degree Days 12 14  
Month to date cooling degree days 370 440  
Year to date cooling degree days 1428 1646  
Since 1 June cooling degree days 1219 1363  
Growing Degree Days 26 (Base 50)    
Moisture  
Dew Point 66 °F    
Average Humidity 74    
Maximum Humidity 100    
Minimum Humidity 47    
Precipitation  
Precipitation 0.00 in 0.12 in 4.12 in (1893)
Month to date precipitation 5.84 3.96  
Year to date precipitation 45.32 30.51  
Sea Level Pressure  
Sea Level Pressure 30.01 in    
Wind  
Wind Speed 3 mph (SSW)    
Max Wind Speed 10 mph    
Max Gust Speed 21 mph    
Visibility 6 miles    
Events      
T = Trace of Precipitation, MM = Missing Value Source: NWS Daily Summary

Daily Weather History Graph

Daily Weather History Graph

Search for Another Location

Airport:

Trip Planner

Search our weather history database for the weather conditions in past years. The results will help you decide how hot, cold, wet, or windy it might be!

Date:

Astronomy

Aug. 28, 2013 Rise Set
Actual Time 6:59 AM EDT 7:57 PM EDT
Civil Twilight 6:33 AM EDT 8:23 PM EDT
Nautical Twilight 6:03 AM EDT 8:53 PM EDT
Astronomical Twilight 5:32 AM EDT 9:24 PM EDT
Moon 12:14 AM EDT (8/28) 2:26 PM EDT (8/28)
Length of Visible Light 13h 49m
Length of Day
12h 58m
Waning Gibbous, 47% of the Moon is Illuminated
Aug 28
Waning Gibbous
Sep 5
New
Sep 12
First Quarter
Sep 19
Full
Sep 26
Last Quarter

Hourly Weather History & Observations

Time (EDT) Temp. Heat Index Dew Point Humidity Pressure Visibility Wind Dir Wind Speed Gust Speed Precip Events Conditions
12:53 AM 68.0 °F - 66.9 °F 96% 30.04 in 6.0 mi Calm Calm - N/A   Clear
1:36 AM 66.2 °F - 66.2 °F 100% 30.03 in 1.8 mi Calm Calm - N/A   Clear
1:53 AM 66.9 °F - 66.0 °F 97% 30.02 in 2.0 mi Calm Calm - N/A   Clear
2:09 AM 66.2 °F - 66.2 °F 100% 30.02 in 1.0 mi Calm Calm - N/A   Clear
2:17 AM 66.2 °F - 66.2 °F 100% 30.02 in 3.0 mi Calm Calm - N/A   Clear
2:43 AM 64.4 °F - 64.4 °F 100% 30.01 in 2.0 mi South 4.6 mph - N/A   Clear
2:53 AM 66.0 °F - 64.9 °F 96% 30.01 in 5.0 mi South 3.5 mph - N/A   Clear
3:34 AM 66.2 °F - 64.4 °F 94% 30.01 in 1.8 mi Calm Calm - 0.01 in   Clear
3:53 AM 64.9 °F - 64.9 °F 100% 30.00 in 2.5 mi Calm Calm - 0.01 in   Clear
3:58 AM 64.4 °F - 64.4 °F 100% 30.00 in 1.2 mi Calm Calm - N/A   Partly Cloudy
4:00 AM 64.4 °F - 64.4 °F 100% 30.00 in 0.8 mi Calm Calm - N/A   Mist
4:09 AM 64.4 °F - 64.4 °F 100% 30.00 in 1.5 mi Calm Calm - N/A   Clear
4:11 AM 64.4 °F - 64.4 °F 100% 30.00 in 3.0 mi Calm Calm - N/A   Clear
4:38 AM 64.4 °F - 64.4 °F 100% 30.01 in 1.5 mi Calm Calm - N/A   Clear
4:49 AM 64.4 °F - 64.4 °F 100% 30.01 in 3.0 mi Calm Calm - N/A   Clear
4:53 AM 64.9 °F - 64.9 °F 100% 30.00 in 4.0 mi Calm Calm - N/A   Clear
5:08 AM 64.4 °F - 64.4 °F 100% 30.01 in 1.8 mi Calm Calm - N/A   Clear
5:22 AM 64.4 °F - 64.4 °F 100% 30.01 in 3.0 mi Calm Calm - 0.00 in   Clear
5:53 AM 63.0 °F - 63.0 °F 100% 30.01 in 2.5 mi Calm Calm - 0.00 in   Clear
6:13 AM 62.6 °F - 62.6 °F 100% 30.02 in 1.5 mi Calm Calm - N/A   Clear
6:37 AM 64.4 °F - 64.4 °F 100% 30.02 in 3.0 mi Calm Calm - N/A   Clear
6:53 AM 64.0 °F - 64.0 °F 100% 30.02 in 4.0 mi Calm Calm - N/A   Clear
7:53 AM 66.9 °F - 66.0 °F 97% 30.03 in 4.0 mi Calm Calm - N/A   Clear
8:53 AM 72.0 °F - 68.0 °F 87% 30.03 in 8.0 mi Calm Calm - N/A   Clear
9:53 AM 78.1 °F - 69.1 °F 74% 30.04 in 10.0 mi Calm Calm - N/A   Clear
10:53 AM 82.0 °F 85.5 °F 69.1 °F 65% 30.04 in 10.0 mi Variable 4.6 mph - N/A   Clear
11:53 AM 86.0 °F 89.4 °F 68.0 °F 55% 30.04 in 10.0 mi West 9.2 mph - N/A   Clear
12:53 PM 88.0 °F 91.4 °F 68.0 °F 51% 30.04 in 10.0 mi Variable 4.6 mph - N/A   Clear
1:53 PM 89.1 °F 92.9 °F 68.0 °F 50% 30.02 in 10.0 mi SSW 6.9 mph - N/A   Clear
2:53 PM 89.1 °F 91.3 °F 66.0 °F 46% 30.00 in 10.0 mi Variable 4.6 mph - N/A   Clear
3:53 PM 89.1 °F 92.1 °F 66.9 °F 48% 29.99 in 10.0 mi SW 6.9 mph - N/A   Clear
4:53 PM 89.1 °F 92.1 °F 66.9 °F 48% 29.96 in 10.0 mi SW 6.9 mph - N/A   Clear
5:53 PM 88.0 °F 90.7 °F 66.9 °F 49% 29.96 in 10.0 mi SSW 4.6 mph - N/A   Clear
6:53 PM 86.0 °F 90.1 °F 69.1 °F 57% 29.95 in 10.0 mi SSW 4.6 mph - N/A   Clear
7:53 PM 82.0 °F 85.9 °F 70.0 °F 67% 29.96 in 10.0 mi SSW 3.5 mph - N/A   Clear
8:53 PM 75.0 °F - 72.0 °F 90% 29.97 in 10.0 mi Calm Calm - N/A   Clear
9:53 PM 73.0 °F - 71.1 °F 93% 29.98 in 8.0 mi Calm Calm - N/A   Clear
10:53 PM 72.0 °F - 70.0 °F 93% 29.98 in 9.0 mi Calm Calm - N/A   Clear
11:53 PM 72.0 °F - 69.1 °F 91% 29.98 in 8.0 mi Calm Calm - N/A   Clear